Regional Weather Roundup
Issued by NWS Green Bay, WI

Home | Current Version | Previous Version | Text Only | Print | Product List | Glossary On
Versions: 1 2 3 4 5 6 7 8 9 10 11 12 13 14 15 16 17 18 19 20 21 22 23 24 25 26 27 28 29 30 31 32 33 34 35 36 37 38 39 40 41 42 43 44 45 46 47 48 49 50
000
ASUS43 KGRB 202111
RWRGRB

NORTH-CENTRAL AND NORTHEAST WISCONSIN REGIONAL WEATHER ROUNDUP
NATIONAL WEATHER SERVICE GREEN BAY WI
400 PM CDT FRI OCT 20 2017

WIZ005-009-010>012-018-019-202200-
NORTH CENTRAL WISCONSIN

CITY           SKY/WX    TMP DP  RH WIND       PRES   REMARKS
IRONWOOD       SUNNY     76  41  28 S13G18    29.81F
MANITOWISH WTR CLOUDY    73  42  33 S14       29.87F
ARBOR VITAE    MOSUNNY   72  42  34 S12G17    29.89F
EAGLE RIVER    CLOUDY    73  38  28 S7        29.91S
LAND O LAKES   SUNNY     74  37  25 S10       29.91S
RHINELANDER    MOSUNNY   73  44  35 S15G24    29.93S
PHILLIPS       MOSUNNY   73  43  33 S13G26    29.87S
ANTIGO         MOSUNNY   72  46  40 S14       29.95F
TOMAHAWK       MOSUNNY   72  46  38 S3        29.92S
MERRILL        CLOUDY    73  48  40 S9        29.93S
$$

WIZ013-073-202200-
NORTHEAST WISCONSIN

CITY           SKY/WX    TMP DP  RH WIND       PRES   REMARKS
IRON MOUNTAIN  SUNNY     74  45  35 S12       29.91F
MARINETTE      SUNNY     72  51  47 SW13      29.96S
OCONTO         SUNNY     74  50  43 S9G16     29.95F
$$

WIZ017-030-035>037-045-202200-
CENTRAL WISCONSIN

CITY           SKY/WX    TMP DP  RH WIND       PRES   REMARKS
MEDFORD        MOSUNNY   74  43  32 S10G18    29.91S
WAUSAU         MOSUNNY   73  44  35 S10       29.92F
MOSINEE        PTSUNNY   72  45  37 S9G16     29.95F
MARSHFIELD     MOSUNNY   75  41  29 S17       29.91F
WISC RAPIDS    SUNNY     76  48  37 SW8       29.94F
STEVENS POINT  MOSUNNY   74  41  30 S8G17     29.95F
WAUPACA        MOSUNNY   78  39  24 S9        29.96S
SHAWANO        MOSUNNY   76  47  36 S3        29.95F
CLINTONVILLE   NOT AVBL
WAUTOMA        CLOUDY    77  43  29 S12       29.96F
$$

WIZ038-039-048-051-202200-
FOX VALLEY

CITY           SKY/WX    TMP DP  RH WIND       PRES   REMARKS
NWS GREEN BAY  MOSUNNY   74  52  46 S12       29.97F
APPLETON       PTSUNNY   75  43  31 S13       29.96F
OSHKOSH        SUNNY     73  50  44 S13       29.98F
FOND DU LAC    CLOUDY    76  43  30 S12       29.99F
$$

WIZ022-050-052-202200-
EAST CENTRAL WISCONSIN

CITY           SKY/WX    TMP DP  RH WIND       PRES   REMARKS
EPHRAIM        FAIR      68  53  58 S14G20    29.96F
WASHINGTON ISL FAIR      58  53  81 S14G21    29.96F
STURGEON BAY   SUNNY     66  54  65 S14       29.98S
MANITOWOC      MOSUNNY   64  53  67 S13       30.00F
SHEBOYGAN      SUNNY     71  55  56 S9        30.01S
$$

LMZ563-521-522-541>543-202200-
LAKESHORE

STATION/POSITION TIME  TEMP    WIND        PRES    VSBY  WAVE
                       AIR SEA DIR/SP/G                  HT/PER
                 (UTC) (F)     (DEG/KT/KT) (MB)    (MI)  (FT/S)
SHEBOYGAN LKSHOR 2100   58     180/ 21/ 22 1016.1F
KEWAUNEE LKSHORE 2042   56     180/ 15/ 17 1015.1F
NORTHPORT PIER   2040   62     170/  8/ 15 1014.6F
N MID LAKE BUOY  2050   61 58  190/ 19/ 23 1015.2F         5/ 6
S GREEN BAY BUOY 2030   65 58  210/ 12/ 14 1014.6F
SISTER BAY LKSHO 2019   73     180/ 13/ 16   N/A
MENOMINEE LKSHOR 2036   72     200/ 12/ 17 1014.1F
$$




USA.gov is the U.S. government's official web portal to all federal, state and local government web resources and services.